Location: Amsterdam
(30.7274°N, 84.4357°W)
Time: 20:52:09
(UTC+00:00)

Tiros 1 despin weight - Pass Details

Date: 17 February 2026
Orbit: 556 x 593 km, 48.2° (Epoch: 7 March)

Event Time Altitude Azimuth Distance (km) Brightness Sun altitude
Rises 20:06:24 0° 240° (WSW) 2,742 ? 36.6°
Reaches altitude 10° 20:08:43 10° 245° (WSW) 1,843 ? 36.3°
Maximum altitude 20:12:49 51° 322° (NW) 700 ? 35.7°
Drops below altitude 10° 20:16:54 10° 40° (NE) 1,836 ? 35.0°
Sets 20:19:12 0° 45° (NE) 2,731 ? 34.7°
